Weather History for K2G4 - October, 2011

Change the Weather History Date:

Friday, October 28, 2011

  Actual Average (KMGW) Record (KMGW)
Temperature  
Mean Temperature 32 °F 51 °F  
Max Temperature 37 °F 61 °F 79 °F (2014)
Min Temperature 28 °F 41 °F 26 °F (1976)
Degree Days  
Heating Degree Days 32 14  
Month to date heating degree days 300  
Since 1 July heating degree days 397  
Cooling Degree Days 0 0  
Month to date cooling degree days 10  
Year to date cooling degree days 811  
Moisture  
Dew Point 28 °F    
Average Humidity 87    
Maximum Humidity 100    
Minimum Humidity 65    
Precipitation  
Precipitation 0.00 in 0.10 in 0.72 in (2006)
Month to date precipitation 2.50  
Year to date precipitation 35.18  
Sea Level Pressure  
Sea Level Pressure 30.10 in    
Wind  
Wind Speed 5 mph (ENE)    
Max Wind Speed 15 mph    
Max Gust Speed 18 mph    
Visibility 10 miles    
Events      
T = Trace of Precipitation, MM = Missing Value Source: NWS Daily Summary

Daily Weather History Graph

Daily Weather History Graph

Search for Another Location

Airport or City:

Trip Planner

Search our weather history database for the weather conditions in past years. The results will help you decide how hot, cold, wet, or windy it might be!

Date:

Astronomy

Oct. 28, 2011 Rise Set
Actual Time 7:40 AM EDT 6:20 PM EDT
Civil Twilight 7:13 AM EDT 6:48 PM EDT
Nautical Twilight 6:41 AM EDT 7:20 PM EDT
Astronomical Twilight 6:10 AM EDT 7:51 PM EDT
Moon 9:53 AM EDT (10/28) 7:42 PM EDT (10/28)
Length of Visible Light 11h 35m
Length of Day
10h 39m
Waxing Crescent, 5% of the Moon is Illuminated
Oct 28
Waxing Crescent
Nov 2
First Quarter
Nov 10
Full
Nov 18
Last Quarter
Nov 25
New

Hourly Weather History & Observations

Time (EDT) Temp. Windchill Dew Point Humidity Pressure Visibility Wind Dir Wind Speed Gust Speed Precip Events Conditions
12:05 AM 32.0 °F 26.4 °F 32.0 °F 100% 30.02 in 10.0 mi NNW 5.8 mph - N/A   Overcast
12:20 AM 32.0 °F 27.5 °F 32.0 °F 100% 30.02 in 10.0 mi North 4.6 mph - N/A   Overcast
12:40 AM 32.0 °F 28.7 °F 32.0 °F 100% 30.04 in 10.0 mi North 3.5 mph - N/A   Overcast
1:00 AM 32.0 °F 27.5 °F 32.0 °F 100% 30.04 in 10.0 mi NNW 4.6 mph - N/A   Overcast
1:20 AM 30.2 °F 25.4 °F 30.2 °F 100% 30.04 in 10.0 mi North 4.6 mph - N/A   Overcast
2:00 AM 30.2 °F 25.4 °F 30.2 °F 100% 30.06 in 10.0 mi NNW 4.6 mph - N/A   Overcast
2:20 AM 32.0 °F 28.7 °F 32.0 °F 100% 30.07 in 10.0 mi NNW 3.5 mph - N/A   Overcast
2:40 AM 30.2 °F 25.4 °F 30.2 °F 100% 30.08 in 10.0 mi North 4.6 mph - N/A   Overcast
2:55 AM 30.2 °F - 30.2 °F 100% 30.08 in 10.0 mi Calm Calm - N/A   Overcast
3:15 AM 30.2 °F 26.7 °F 30.2 °F 100% 30.07 in 10.0 mi NNW 3.5 mph - N/A   Scattered Clouds
3:35 AM 30.2 °F - 30.2 °F 100% 30.08 in 10.0 mi Calm Calm - N/A   Clear
3:55 AM 30.2 °F - 30.2 °F 100% 30.08 in 10.0 mi Calm Calm - N/A   Clear
4:15 AM 30.2 °F - 30.2 °F 100% 30.07 in 10.0 mi Calm Calm - N/A   Clear
4:35 AM 30.2 °F - 30.2 °F 100% 30.07 in 10.0 mi Calm Calm - N/A   Clear
4:55 AM 28.4 °F - 28.4 °F 100% 30.08 in 10.0 mi Calm Calm - N/A   Clear
5:10 AM 28.4 °F 24.6 °F 28.4 °F 100% 30.09 in 10.0 mi NNW 3.5 mph - N/A   Clear
5:30 AM 28.4 °F - 28.4 °F 100% 30.09 in 10.0 mi Calm Calm - N/A   Clear
5:50 AM 28.4 °F - 28.4 °F 100% 30.09 in 10.0 mi Calm Calm - N/A   Clear
6:10 AM 28.4 °F - 28.4 °F 100% 30.10 in 10.0 mi Calm Calm - N/A   Clear
6:30 AM 28.4 °F - 28.4 °F 100% 30.10 in 10.0 mi Calm Calm - N/A   Clear
6:50 AM 28.4 °F 24.6 °F 28.4 °F 100% 30.10 in 10.0 mi NNE 3.5 mph - N/A   Clear
7:10 AM 28.4 °F 24.6 °F 28.4 °F 100% 30.11 in 10.0 mi North 3.5 mph - N/A   Clear
7:25 AM 28.4 °F 24.6 °F 28.4 °F 100% 30.11 in 10.0 mi NNE 3.5 mph - N/A   Clear
7:45 AM 28.4 °F - 28.4 °F 100% 30.11 in 10.0 mi Calm Calm - N/A   Clear
8:05 AM 28.4 °F - 28.4 °F 100% 30.11 in 10.0 mi Calm Calm - N/A   Clear
8:45 AM 30.2 °F 26.7 °F 28.4 °F 93% 30.12 in 10.0 mi NE 3.5 mph - N/A   Clear
9:05 AM 30.2 °F 22.6 °F 28.4 °F 93% 30.11 in 10.0 mi East 8.1 mph - N/A   Clear
9:25 AM 32.0 °F 27.5 °F 28.4 °F 87% 30.12 in 10.0 mi ENE 4.6 mph - N/A   Clear
9:40 AM 32.0 °F 27.5 °F 28.4 °F 87% 30.12 in 10.0 mi East 4.6 mph - N/A   Clear
10:00 AM 32.0 °F 26.4 °F 26.6 °F 80% 30.13 in 10.0 mi East 5.8 mph - N/A   Clear
10:20 AM 32.0 °F 26.4 °F 28.4 °F 87% 30.13 in 10.0 mi East 5.8 mph - N/A   Clear
10:40 AM 32.0 °F - 28.4 °F 87% 30.14 in 10.0 mi Calm Calm - N/A   Clear
11:00 AM 33.8 °F 27.7 °F 28.4 °F 81% 30.14 in 10.0 mi East 6.9 mph - N/A   Clear
11:20 AM 33.8 °F 27.0 °F 28.4 °F 81% 30.14 in 10.0 mi ESE 8.1 mph - N/A   Clear
11:40 AM 35.6 °F 27.5 °F 28.4 °F 75% 30.14 in 10.0 mi ESE 11.5 mph - N/A   Clear
11:55 AM 35.6 °F 28.6 °F 26.6 °F 70% 30.14 in 10.0 mi East 9.2 mph - N/A   Clear
12:15 PM 37.4 °F 30.8 °F 26.6 °F 65% 30.14 in 10.0 mi East 9.2 mph - N/A   Clear
12:55 PM 35.6 °F 28.6 °F 26.6 °F 70% 30.14 in 10.0 mi East 9.2 mph - N/A   Clear
1:15 PM 35.6 °F 29.2 °F 26.6 °F 70% 30.12 in 10.0 mi ESE 8.1 mph - N/A   Scattered Clouds
1:35 PM 35.6 °F 28.6 °F 26.6 °F 70% 30.12 in 10.0 mi ESE 9.2 mph 16.1 mph N/A   Mostly Cloudy
1:55 PM 33.8 °F 26.4 °F 26.6 °F 75% 30.11 in 10.0 mi ESE 9.2 mph - N/A   Overcast
2:10 PM 33.8 °F 25.3 °F 24.8 °F 70% 30.11 in 10.0 mi ESE 11.5 mph - N/A   Overcast
2:15 PM 33.8 °F 25.8 °F 24.8 °F 70% 30.11 in 10.0 mi SE 10.4 mph 18.4 mph N/A   Overcast
2:30 PM 33.8 °F 24.8 °F 23.0 °F 65% 30.10 in 10.0 mi East 12.7 mph 16.1 mph N/A   Overcast
2:50 PM 33.8 °F 25.3 °F 23.0 °F 65% 30.10 in 10.0 mi ESE 11.5 mph 17.3 mph N/A   Overcast
3:10 PM 33.8 °F 25.8 °F 23.0 °F 65% 30.09 in 10.0 mi ESE 10.4 mph - N/A   Overcast
3:30 PM 33.8 °F 26.4 °F 23.0 °F 65% 30.10 in 10.0 mi ESE 9.2 mph - N/A   Overcast
3:50 PM 33.8 °F 24.8 °F 24.8 °F 70% 30.09 in 10.0 mi ESE 12.7 mph - N/A   Overcast
4:10 PM 33.8 °F 25.3 °F 24.8 °F 70% 30.09 in 10.0 mi ESE 11.5 mph - N/A   Overcast
4:30 PM 33.8 °F 26.4 °F 26.6 °F 75% 30.09 in 10.0 mi SE 9.2 mph - N/A   Overcast
4:45 PM 33.8 °F 23.9 °F 24.8 °F 70% 30.08 in 10.0 mi SE 15.0 mph 18.4 mph N/A   Overcast
5:05 PM 33.8 °F 24.8 °F 26.6 °F 75% 30.08 in 10.0 mi SE 12.7 mph 18.4 mph N/A   Overcast
5:25 PM 32.0 °F 23.6 °F 26.6 °F 80% 30.09 in 3.0 mi SE 10.4 mph - N/A   Haze
5:45 PM 32.0 °F 22.5 °F 30.2 °F 93% 30.09 in 1.2 mi SE 12.7 mph - N/A   Overcast
6:05 PM 30.2 °F 20.2 °F 30.2 °F 100% 30.09 in 1.2 mi SE 12.7 mph 19.6 mph N/A   Overcast
6:25 PM 30.2 °F 21.9 °F 30.2 °F 100% 30.10 in 2.0 mi SE 9.2 mph - N/A   Overcast
6:45 PM 30.2 °F 21.9 °F 30.2 °F 100% 30.10 in 2.5 mi SE 9.2 mph - N/A   Overcast
7:00 PM 30.2 °F 21.3 °F 30.2 °F 100% 30.10 in 1.8 mi SE 10.4 mph - N/A   Overcast
7:20 PM 30.2 °F 21.9 °F 30.2 °F 100% 30.11 in 2.0 mi SE 9.2 mph - N/A   Overcast
7:40 PM 30.2 °F 24.3 °F 30.2 °F 100% 30.11 in 2.0 mi SE 5.8 mph - N/A   Overcast
8:00 PM 30.2 °F 23.4 °F 30.2 °F 100% 30.11 in 2.0 mi ESE 6.9 mph - N/A   Overcast
8:40 PM 30.2 °F 21.9 °F 30.2 °F 100% 30.11 in 2.0 mi ESE 9.2 mph - N/A   Overcast
9:00 PM 30.2 °F 21.3 °F 30.2 °F 100% 30.09 in 2.5 mi ESE 10.4 mph 16.1 mph N/A   Overcast
9:15 PM 30.2 °F 21.9 °F 30.2 °F 100% 30.09 in 4.0 mi ESE 9.2 mph - N/A   Overcast
9:35 PM 30.2 °F 22.6 °F 30.2 °F 100% 30.09 in 5.0 mi ESE 8.1 mph - N/A   Overcast
9:55 PM 30.2 °F 22.6 °F 30.2 °F 100% 30.08 in 5.0 mi ESE 8.1 mph - N/A   Overcast
10:15 PM 30.2 °F 21.3 °F 30.2 °F 100% 30.08 in 4.0 mi ESE 10.4 mph - N/A   Overcast
10:35 PM 30.2 °F 20.2 °F 30.2 °F 100% 30.08 in 2.5 mi ESE 12.7 mph 17.3 mph N/A   Overcast
10:55 PM 30.2 °F 19.8 °F 30.2 °F 100% 30.07 in 4.0 mi ESE 13.8 mph - N/A   Overcast
11:15 PM 30.2 °F 21.3 °F 30.2 °F 100% 30.05 in 2.5 mi East 10.4 mph - N/A   Overcast
11:30 PM 30.2 °F 22.6 °F 30.2 °F 100% 30.05 in 3.0 mi ESE 8.1 mph - N/A   Overcast
11:50 PM 30.2 °F 22.6 °F 30.2 °F 100% 30.04 in 2.5 mi East 8.1 mph - N/A   Overcast